SWA193 KSFO-KSAN

Flight info

Callsign SWA193
Flight time 1h 5m
Altitude 35000
Route WESLA5 YYUNG LAX COMIX2
Aircraft B738/M-SADE2E3GIJ4RWZ/LB1D1

Departure

Time 2026-04-25 03:52
Airport San Francisco International Airport (KSFO)

Arrival

Time 2026-04-25 04:58
Airport San Diego International Airport (KSAN)
Time Latitude Longitude Altitude Speed Heading
2026-04-25 03:28 37.61676 -122.38166 20 ft 0 kts 13°
2026-04-25 03:42 37.61656 -122.38174 21 ft 4 kts 22°
2026-04-25 03:43 37.61632 -122.38189 20 ft 4 kts 37°
2026-04-25 03:43 37.61613 -122.38212 22 ft 4 kts 61°
2026-04-25 03:43 37.61607 -122.38234 23 ft 0 kts 87°
2026-04-25 03:47 37.61606 -122.38219 23 ft 8 kts 95°
2026-04-25 03:48 37.61572 -122.38115 19 ft 11 kts 118°
2026-04-25 03:48 37.61501 -122.38071 20 ft 15 kts 197°
2026-04-25 03:48 37.61393 -122.38067 20 ft 20 kts 124°
2026-04-25 03:48 37.61321 -122.37890 20 ft 25 kts 117°
2026-04-25 03:49 37.61238 -122.37681 20 ft 28 kts 110°
2026-04-25 03:49 37.61307 -122.37465 20 ft 30 kts 31°
2026-04-25 03:49 37.61495 -122.37336 22 ft 32 kts 37°
2026-04-25 03:49 37.61538 -122.37082 20 ft 33 kts 117°
2026-04-25 03:50 37.61425 -122.36865 20 ft 29 kts 131°
2026-04-25 03:50 37.61312 -122.36653 20 ft 30 kts 117°
2026-04-25 03:50 37.61215 -122.36416 20 ft 30 kts 118°
2026-04-25 03:50 37.61117 -122.36184 20 ft 31 kts 117°
2026-04-25 03:51 37.61054 -122.36012 20 ft 11 kts 97°
2026-04-25 03:51 37.61055 -122.35983 20 ft 0 kts 82°
2026-04-25 03:51 37.61056 -122.35976 20 ft 5 kts 79°
2026-04-25 03:51 37.61127 -122.35892 21 ft 23 kts 13°
2026-04-25 03:52 37.61285 -122.36101 20 ft 60 kts 298°
2026-04-25 03:52 37.61614 -122.36893 21 ft 141 kts 297°
2026-04-25 03:52 37.62162 -122.38215 328 ft 187 kts 297°
2026-04-25 03:52 37.62786 -122.39700 1152 ft 199 kts 297°
2026-04-25 03:53 37.63449 -122.41255 1925 ft 202 kts 296°
2026-04-25 03:53 37.64160 -122.42888 2294 ft 220 kts 297°
2026-04-25 03:53 37.64917 -122.44599 2900 ft 223 kts 298°
2026-04-25 03:53 37.65699 -122.46366 2982 ft 234 kts 297°
2026-04-25 03:54 37.66484 -122.48145 2986 ft 232 kts 296°
2026-04-25 03:54 37.66851 -122.50080 3000 ft 227 kts 265°
2026-04-25 03:54 37.66286 -122.51923 3230 ft 230 kts 234°
2026-04-25 03:54 37.65032 -122.53226 3759 ft 240 kts 206°
2026-04-25 03:55 37.63339 -122.53634 4169 ft 260 kts 178°
2026-04-25 03:55 37.61538 -122.53120 4823 ft 270 kts 160°
2026-04-25 03:55 37.59797 -122.52298 5738 ft 272 kts 160°
2026-04-25 03:55 37.58022 -122.51463 6657 ft 274 kts 160°
2026-04-25 03:56 37.56212 -122.50635 7442 ft 279 kts 160°
2026-04-25 03:56 37.54368 -122.49814 8264 ft 283 kts 160°
2026-04-25 03:56 37.52495 -122.48991 9086 ft 288 kts 160°
2026-04-25 03:56 37.50590 -122.48159 9919 ft 292 kts 160°
2026-04-25 03:57 37.48600 -122.47521 10463 ft 306 kts 177°
2026-04-25 03:57 37.46397 -122.47770 10666 ft 331 kts 188°
2026-04-25 03:57 37.44049 -122.48236 10988 ft 349 kts 189°
2026-04-25 03:57 37.41615 -122.48735 11608 ft 357 kts 189°
2026-04-25 03:58 37.39160 -122.49231 12430 ft 359 kts 189°
2026-04-25 03:58 37.36660 -122.49722 13100 ft 367 kts 188°
2026-04-25 03:58 37.34129 -122.50208 13934 ft 370 kts 188°
2026-04-25 03:58 37.31553 -122.50695 14578 ft 376 kts 188°
2026-04-25 03:59 37.28969 -122.51177 15500 ft 375 kts 189°
2026-04-25 03:59 37.26401 -122.51655 16227 ft 380 kts 189°
2026-04-25 03:59 37.23770 -122.52143 16961 ft 385 kts 189°
2026-04-25 03:59 37.21101 -122.52637 17667 ft 389 kts 189°
2026-04-25 04:00 37.18407 -122.53136 18402 ft 392 kts 190°
2026-04-25 04:00 37.15705 -122.53636 19128 ft 393 kts 190°
2026-04-25 04:00 37.12986 -122.54138 19803 ft 395 kts 191°
2026-04-25 04:00 37.10251 -122.54643 20422 ft 399 kts 191°
2026-04-25 04:01 37.07526 -122.55146 21043 ft 402 kts 191°
2026-04-25 04:01 37.04748 -122.55659 21682 ft 405 kts 192°
2026-04-25 04:01 37.01928 -122.56013 22257 ft 413 kts 181°
2026-04-25 04:01 36.99080 -122.55284 22825 ft 426 kts 161°
2026-04-25 04:02 36.96437 -122.53539 23424 ft 433 kts 152°
2026-04-25 04:02 36.93994 -122.51296 23962 ft 440 kts 142°
2026-04-25 04:02 36.91859 -122.48512 24435 ft 446 kts 134°
2026-04-25 04:02 36.89826 -122.45554 24876 ft 451 kts 134°
2026-04-25 04:03 36.87779 -122.42541 25279 ft 456 kts 134°
2026-04-25 04:03 36.85746 -122.39552 25683 ft 460 kts 134°
2026-04-25 04:03 36.83657 -122.36499 26106 ft 463 kts 135°
2026-04-25 04:03 36.81548 -122.33438 26558 ft 465 kts 135°
2026-04-25 04:04 36.79424 -122.30373 26942 ft 470 kts 136°
2026-04-25 04:04 36.77269 -122.27279 27315 ft 474 kts 136°
2026-04-25 04:04 36.75098 -122.24171 27704 ft 477 kts 136°
2026-04-25 04:04 36.72909 -122.21042 28100 ft 480 kts 136°
2026-04-25 04:05 36.70701 -122.17887 28481 ft 484 kts 136°
2026-04-25 04:05 36.68476 -122.14712 28832 ft 487 kts 136°
2026-04-25 04:05 36.66247 -122.11531 29378 ft 486 kts 136°
2026-04-25 04:05 36.64050 -122.08398 29804 ft 487 kts 136°
2026-04-25 04:06 36.61804 -122.05202 30001 ft 494 kts 137°
2026-04-25 04:06 36.59512 -122.01948 30112 ft 502 kts 137°
2026-04-25 04:06 36.57204 -121.98672 30412 ft 504 kts 137°
2026-04-25 04:06 36.54887 -121.95379 30789 ft 504 kts 137°
2026-04-25 04:07 36.52579 -121.92100 31319 ft 499 kts 136°
2026-04-25 04:07 36.50306 -121.88869 31946 ft 493 kts 137°
2026-04-25 04:07 36.48048 -121.85669 32304 ft 494 kts 137°
2026-04-25 04:07 36.45764 -121.82441 32510 ft 498 kts 137°
2026-04-25 04:08 36.43470 -121.79205 32800 ft 500 kts 137°
2026-04-25 04:08 36.41195 -121.75997 33085 ft 502 kts 137°
2026-04-25 04:08 36.38891 -121.72748 33444 ft 501 kts 137°
2026-04-25 04:08 36.36618 -121.69536 34187 ft 491 kts 137°
2026-04-25 04:09 36.34365 -121.66353 34606 ft 489 kts 137°
2026-04-25 04:09 36.32116 -121.63186 34890 ft 490 kts 138°
2026-04-25 04:09 36.29847 -121.60017 35010 ft 493 kts 138°
2026-04-25 04:09 36.27553 -121.56818 35013 ft 498 kts 138°
2026-04-25 04:10 36.22971 -121.50403 34977 ft 497 kts 137°
2026-04-25 04:10 36.18414 -121.44021 34988 ft 492 kts 138°
2026-04-25 04:11 36.11674 -121.34434 34984 ft 494 kts 139°
2026-04-25 04:12 36.07074 -121.28137 34957 ft 498 kts 139°
2026-04-25 04:12 36.02436 -121.21756 34969 ft 497 kts 138°
2026-04-25 04:13 35.97878 -121.15436 34971 ft 490 kts 138°
2026-04-25 04:13 35.93333 -121.09143 34950 ft 491 kts 138°
2026-04-25 04:14 35.88788 -121.02863 34968 ft 491 kts 138°
2026-04-25 04:14 35.84225 -120.96571 34973 ft 492 kts 139°
2026-04-25 04:15 35.79689 -120.90328 34986 ft 492 kts 139°
2026-04-25 04:15 35.75115 -120.84043 34981 ft 493 kts 139°
2026-04-25 04:16 35.70529 -120.77753 34994 ft 492 kts 139°
2026-04-25 04:16 35.65949 -120.71485 35003 ft 493 kts 139°
2026-04-25 04:17 35.61359 -120.65214 34986 ft 493 kts 139°
2026-04-25 04:17 35.56791 -120.58984 34994 ft 493 kts 139°
2026-04-25 04:18 35.52201 -120.52735 34992 ft 492 kts 139°
2026-04-25 04:18 35.47605 -120.46489 34986 ft 492 kts 139°
2026-04-25 04:19 35.43016 -120.40265 34979 ft 490 kts 140°
2026-04-25 04:19 35.38435 -120.34064 34985 ft 490 kts 140°
2026-04-25 04:20 35.33889 -120.27922 34966 ft 489 kts 140°
2026-04-25 04:20 35.29314 -120.21753 34957 ft 488 kts 140°
2026-04-25 04:21 35.24739 -120.15594 34963 ft 489 kts 140°
2026-04-25 04:21 35.20159 -120.09446 34972 ft 489 kts 141°
2026-04-25 04:22 35.15571 -120.03291 34951 ft 490 kts 140°
2026-04-25 04:22 35.10977 -119.97136 34957 ft 489 kts 141°
2026-04-25 04:23 35.06423 -119.90987 34947 ft 492 kts 140°
2026-04-25 04:23 35.01810 -119.84816 34944 ft 492 kts 141°
2026-04-25 04:24 34.97170 -119.78683 34914 ft 492 kts 141°
2026-04-25 04:24 34.93317 -119.73583 34924 ft 492 kts 141°
2026-04-25 04:25 34.88673 -119.67425 34914 ft 492 kts 141°
2026-04-25 04:25 34.83280 -119.60277 34925 ft 493 kts 141°
2026-04-25 04:26 34.79397 -119.55139 34895 ft 491 kts 141°
2026-04-25 04:26 34.74791 -119.48972 34905 ft 491 kts 141°
2026-04-25 04:27 34.70138 -119.42894 34902 ft 489 kts 142°
2026-04-25 04:27 34.65482 -119.36853 34910 ft 490 kts 141°
2026-04-25 04:28 34.60866 -119.30759 34915 ft 491 kts 141°
2026-04-25 04:28 34.56264 -119.24704 34931 ft 490 kts 142°
2026-04-25 04:29 34.51641 -119.18642 34927 ft 490 kts 141°
2026-04-25 04:29 34.47007 -119.12579 34913 ft 490 kts 142°
2026-04-25 04:30 34.42383 -119.06482 34957 ft 490 kts 142°
2026-04-25 04:30 34.37704 -119.00443 34947 ft 491 kts 142°
2026-04-25 04:31 34.33036 -118.94410 34950 ft 491 kts 142°
2026-04-25 04:31 34.28400 -118.88399 34943 ft 492 kts 142°
2026-04-25 04:32 34.23730 -118.82349 34948 ft 493 kts 142°
2026-04-25 04:32 34.19042 -118.76287 34948 ft 494 kts 142°
2026-04-25 04:33 34.14335 -118.70211 34909 ft 496 kts 143°
2026-04-25 04:33 34.09617 -118.64132 34885 ft 498 kts 143°
2026-04-25 04:33 34.07238 -118.61037 34283 ft 503 kts 143°
2026-04-25 04:34 34.04836 -118.58102 33680 ft 497 kts 143°
2026-04-25 04:34 34.02448 -118.55084 32997 ft 498 kts 141°
2026-04-25 04:34 34.00114 -118.51998 32301 ft 498 kts 140°
2026-04-25 04:34 33.97793 -118.48942 31991 ft 488 kts 140°
2026-04-25 04:35 33.95479 -118.45949 31253 ft 487 kts 140°
2026-04-25 04:35 33.93162 -118.42991 30835 ft 486 kts 140°
2026-04-25 04:35 33.90846 -118.40023 30327 ft 484 kts 139°
2026-04-25 04:35 33.88558 -118.37059 29804 ft 480 kts 139°
2026-04-25 04:36 33.86296 -118.34118 29242 ft 476 kts 139°
2026-04-25 04:36 33.84077 -118.31237 28683 ft 471 kts 139°
2026-04-25 04:36 33.81860 -118.28366 28177 ft 466 kts 139°
2026-04-25 04:36 33.79664 -118.25528 27634 ft 461 kts 139°
2026-04-25 04:37 33.77488 -118.22721 27171 ft 456 kts 139°
2026-04-25 04:37 33.75345 -118.19929 26676 ft 453 kts 138°
2026-04-25 04:37 33.73224 -118.17140 26150 ft 449 kts 137°
2026-04-25 04:37 33.71128 -118.14378 25666 ft 447 kts 137°
2026-04-25 04:38 33.69034 -118.11621 25202 ft 444 kts 137°
2026-04-25 04:38 33.66953 -118.08885 24709 ft 441 kts 137°
2026-04-25 04:38 33.64885 -118.06172 24225 ft 439 kts 137°
2026-04-25 04:38 33.62849 -118.03506 23727 ft 439 kts 137°
2026-04-25 04:39 33.60783 -118.00803 23171 ft 438 kts 137°
2026-04-25 04:39 33.58735 -117.98123 22649 ft 434 kts 137°
2026-04-25 04:39 33.56703 -117.95467 22146 ft 430 kts 137°
2026-04-25 04:39 33.54678 -117.92838 21658 ft 425 kts 138°
2026-04-25 04:40 33.52597 -117.90346 21169 ft 420 kts 141°
2026-04-25 04:40 33.50486 -117.87941 20693 ft 417 kts 141°
2026-04-25 04:40 33.48388 -117.85562 20221 ft 414 kts 141°
2026-04-25 04:40 33.46312 -117.83180 19758 ft 411 kts 141°
2026-04-25 04:41 33.44286 -117.80837 19305 ft 408 kts 141°
2026-04-25 04:41 33.42221 -117.78511 18826 ft 404 kts 143°
2026-04-25 04:41 33.40132 -117.76277 18374 ft 401 kts 143°
2026-04-25 04:41 33.38037 -117.74074 17859 ft 399 kts 143°
2026-04-25 04:42 33.35950 -117.71876 17379 ft 396 kts 143°
2026-04-25 04:42 33.33915 -117.69721 16918 ft 393 kts 143°
2026-04-25 04:42 33.31878 -117.67555 16462 ft 390 kts 143°
2026-04-25 04:42 33.29863 -117.65406 16022 ft 386 kts 143°
2026-04-25 04:43 33.27864 -117.63275 15586 ft 383 kts 143°
2026-04-25 04:43 33.25880 -117.61162 15149 ft 380 kts 143°
2026-04-25 04:43 33.23916 -117.59077 15005 ft 376 kts 143°
2026-04-25 04:43 33.22010 -117.57067 14969 ft 365 kts 144°
2026-04-25 04:44 33.20109 -117.55066 14963 ft 355 kts 144°
2026-04-25 04:44 33.18297 -117.53161 14957 ft 346 kts 144°
2026-04-25 04:44 33.16518 -117.51290 14949 ft 334 kts 144°
2026-04-25 04:44 33.14813 -117.49494 14953 ft 320 kts 144°
2026-04-25 04:45 33.13155 -117.47805 14965 ft 305 kts 149°
2026-04-25 04:45 33.11435 -117.46346 14514 ft 307 kts 153°
2026-04-25 04:45 33.09593 -117.44874 13547 ft 330 kts 152°
2026-04-25 04:45 33.07629 -117.43285 12517 ft 351 kts 150°
2026-04-25 04:46 33.05608 -117.41615 12015 ft 352 kts 150°
2026-04-25 04:46 33.03644 -117.39966 11896 ft 339 kts 150°
2026-04-25 04:46 33.01754 -117.38371 11812 ft 327 kts 150°
2026-04-25 04:46 32.99929 -117.36834 11735 ft 316 kts 150°
2026-04-25 04:47 32.98166 -117.35354 11644 ft 305 kts 150°
2026-04-25 04:47 32.96451 -117.33917 11466 ft 300 kts 150°
2026-04-25 04:47 32.94746 -117.32492 11162 ft 299 kts 150°
2026-04-25 04:47 32.93055 -117.31078 11009 ft 292 kts 150°
2026-04-25 04:48 32.91447 -117.29730 10794 ft 282 kts 150°
2026-04-25 04:48 32.89837 -117.28392 10330 ft 282 kts 150°
2026-04-25 04:48 32.88229 -117.27057 9888 ft 282 kts 150°
2026-04-25 04:48 32.86625 -117.25726 9452 ft 279 kts 149°
2026-04-25 04:49 32.85038 -117.24407 9052 ft 276 kts 149°
2026-04-25 04:49 32.83468 -117.23104 8619 ft 274 kts 149°
2026-04-25 04:49 32.81911 -117.21817 8210 ft 274 kts 141°
2026-04-25 04:49 32.80866 -117.19917 7786 ft 278 kts 111°
2026-04-25 04:50 32.80347 -117.17714 7409 ft 275 kts 105°
2026-04-25 04:50 32.79880 -117.15497 6973 ft 276 kts 105°
2026-04-25 04:50 32.79419 -117.13347 6712 ft 268 kts 106°
2026-04-25 04:50 32.78957 -117.11245 6500 ft 257 kts 106°
2026-04-25 04:51 32.78507 -117.09217 6279 ft 251 kts 106°
2026-04-25 04:51 32.78063 -117.07229 6058 ft 246 kts 106°
2026-04-25 04:51 32.77610 -117.05268 5852 ft 245 kts 107°
2026-04-25 04:51 32.77139 -117.03333 5657 ft 243 kts 108°
2026-04-25 04:52 32.76673 -117.01429 5463 ft 241 kts 107°
2026-04-25 04:52 32.76208 -116.99525 5278 ft 240 kts 107°
2026-04-25 04:52 32.75679 -116.97649 5020 ft 240 kts 118°
2026-04-25 04:52 32.74627 -116.96140 4732 ft 237 kts 146°
2026-04-25 04:53 32.73151 -116.95393 4449 ft 228 kts 174°
2026-04-25 04:53 32.71613 -116.95510 4195 ft 218 kts 198°
2026-04-25 04:53 32.70275 -116.96267 3951 ft 209 kts 219°
2026-04-25 04:53 32.69336 -116.97520 3729 ft 207 kts 238°
2026-04-25 04:54 32.68831 -116.99112 3438 ft 208 kts 262°
2026-04-25 04:54 32.68908 -117.00801 3177 ft 206 kts 282°
2026-04-25 04:54 32.69335 -117.02416 2912 ft 203 kts 287°
2026-04-25 04:54 32.69749 -117.03984 2665 ft 194 kts 285°
2026-04-25 04:55 32.70119 -117.05504 2411 ft 189 kts 284°
2026-04-25 04:55 32.70478 -117.07003 2195 ft 190 kts 284°
2026-04-25 04:55 32.70841 -117.08512 1937 ft 184 kts 284°
2026-04-25 04:55 32.71181 -117.09926 1623 ft 172 kts 284°
2026-04-25 04:56 32.71494 -117.11232 1353 ft 157 kts 284°
2026-04-25 04:56 32.71783 -117.12434 1137 ft 150 kts 284°
2026-04-25 04:56 32.72072 -117.13636 899 ft 152 kts 284°
2026-04-25 04:56 32.72363 -117.14834 674 ft 151 kts 283°
2026-04-25 04:57 32.72651 -117.16038 512 ft 152 kts 284°
2026-04-25 04:57 32.72940 -117.17259 231 ft 152 kts 285°
2026-04-25 04:57 32.73225 -117.18441 32 ft 141 kts 286°
2026-04-25 04:57 32.73457 -117.19398 22 ft 80 kts 286°
2026-04-25 04:58 32.73529 -117.19744 26 ft 31 kts 265°
2026-04-25 04:58 32.73444 -117.19799 23 ft 19 kts 108°
2026-04-25 04:58 32.73419 -117.19649 22 ft 17 kts 103°
2026-04-25 04:58 32.73386 -117.19510 25 ft 17 kts 108°
2026-04-25 04:59 32.73349 -117.19374 21 ft 18 kts 106°
2026-04-25 04:59 32.73314 -117.19222 21 ft 19 kts 104°
2026-04-25 04:59 32.73286 -117.19096 22 ft 8 kts 105°
2026-04-25 04:59 32.73252 -117.19048 21 ft 8 kts 166°
2026-04-25 05:00 32.73207 -117.19089 20 ft 10 kts 234°
2026-04-25 05:00 32.73195 -117.19059 23 ft 9 kts 22°
2026-04-25 05:00 32.73255 -117.19047 21 ft 9 kts 347°
2026-04-25 05:00 32.73290 -117.19112 22 ft 11 kts 284°
2026-04-25 05:01 32.73320 -117.19247 21 ft 26 kts 284°
2026-04-25 05:01 32.73369 -117.19462 22 ft 19 kts 286°
2026-04-25 05:01 32.73405 -117.19609 25 ft 11 kts 285°
2026-04-25 05:01 32.73400 -117.19693 23 ft 11 kts 231°
2026-04-25 05:02 32.73344 -117.19705 21 ft 8 kts 150°
2026-04-25 05:02 32.73321 -117.19684 19 ft 2 kts 144°
2026-04-25 05:02 32.73315 -117.19679 19 ft 0 kts 143°